Preview of NWS' New Version of Forecast
This preview is not operational and should not be used for support decisions.

Regional Weather Roundup (RWR)

Issued by National Weather Service (NWS)

                            
000
ASUS46 KPQR 200310
RWROR 

OREGON REGIONAL WEATHER ROUNDUP
NATIONAL WEATHER SERVICE PORTLAND OR
800 PM PDT MON AUG 19 2019

NOTE: "FAIR" INDICATES FEW OR NO CLOUDS BELOW 12,000 FEET WITH
NO SIGNIFICANT WEATHER AND/OR OBSTRUCTIONS TO VISIBILITY.

ORZ001>013-200400-
NORTHWEST OREGON

  
CITY           SKY/WX    TMP DP  RH WIND       PRES   REMARKS
ASTORIA        PTCLDY    65  54  67 N8        29.95F                  
TILLAMOOK      CLEAR     64  54  68 CALM      29.96F                  
NEWPORT        CLEAR     61  55  82 N6        29.98F                  
PORTLAND       PTCLDY    75  56  51 N6        29.91S                  
VANCOUVER WA   CLEAR     75  55  49 NW7       29.91S                  
SCAPPOOSE      CLEAR     72  56  57 NW6       29.91F                  
HILLSBORO      CLEAR     73  56  54 N5        29.92S                  
AURORA         CLEAR     76  55  48 NE6       29.92S                  
MCMINNVILLE    CLEAR     76  54  46 E5        29.90S                  
SALEM          CLEAR     77  51  40 NE7       29.90S                  
CORVALLIS      CLEAR     73  57  57 NW12      29.92R                  
EUGENE         PTCLDY    77  55  46 N6        29.91S                  
CRESWELL       CLEAR     75  55  50 CALM      29.90S                  
$$

ORZ021-028-200400-
SOUTHWEST OREGON

  
CITY           SKY/WX    TMP DP  RH WIND       PRES   REMARKS
NORTH BEND     CLEAR     63  59  87 N8        29.97F                  
BROOKINGS      PTCLDY    57  54  89 CALM      29.98S                  
ROSEBURG       PTCLDY    81  54  39 NW5       29.90S                  
SEXTON SUMMIT  PTCLDY    68  52  56 NW7       30.03S                  
GRANTS PASS    FAIR      84  54  34 NW8       29.91R                  
MEDFORD        PTCLDY    86  46  24 W8        29.87R                  
$$

ORZ014>016-041-200400-
COLUMBIA GORGE

  
CITY           SKY/WX    TMP DP  RH WIND       PRES   REMARKS
TROUTDALE      CLEAR     76  55  48 CALM      29.91R                  
HOOD RIVER     CLEAR     73  52  46 CALM      29.88R                  
THE DALLES     CLEAR     81  51  35 VRB3      29.83S                  
$$

ORZ029>031-041-044-049-050-061>064-502-503-505>511-200400-
EASTERN OREGON

  
CITY           SKY/WX    TMP DP  RH WIND       PRES   REMARKS
MADRAS         CLEAR     79  50  36 NW9       29.94R                  
REDMOND        CLEAR     81  41  24 N8        29.95R                  
BEND           CLEAR     81  37  21 N5        29.97R                  
PRINEVILLE     CLEAR     79  39  24 NW8       29.95R                  
KLAMATH FALLS  CLEAR     74  43  32 NW7       30.00R                  
LAKEVIEW       CLEAR     66  43  43 S8        30.05R                  
HERMISTON      CLEAR     81  51  35 E5        29.82S                  
PENDLETON      CLEAR     80  42  25 N3        29.87S                  
JOHN DAY       PTCLDY    80  35  19 CALM      29.98R                  
MEACHAM        CLEAR     68  43  40 CALM      30.02R                  
LA GRANDE      CLEAR     77  45  32 NW8       29.95R                  
BAKER CITY     CLEAR     74  48  39 NW7       29.97R                  
BURNS          PTCLDY    75  44  33 CALM      29.97S                  
ROME             N/A     84  19   9 CALM      29.93R                  
ONTARIO        PTCLDY    80  58  46 CALM      29.83R                  
$$